CZ-6A DEB

Satellite information

Favourite Embed

Satellite Type and Status

DEBRISIN ORBIT

Key statistics

Satellite CZ-6A DEB at a glance.

Uptime

495

Days in orbit

Revolutions

≈ 14.4

Per day

Orbit

LEO

Low Earth Orbit

Inclination

88.9

Latest

Satellite identification and parameters

Extended collection of information and parameters for CZ-6A DEB.

Object identification

Identified? True

Debris? True

Object name: CZ-6A DEB

International designator: 2024-140BC

Object number (NORAD): 60651

Object ID (CCSDS): 60651

Country: PEOPLES REPUBLIC OF CHINA (PRC)

Current information (Y/N): Y

RCS size: MEDIUM

Orbital parameters

Period: 99.679 minutes

Inclination: 88.8863 deg

SMA: 7121.37 km

Apoapsis: 797.502 km

Periapsis: 688.969 km

RAAN: 286.636 deg

Eccentricy: 0.00762025

Argument of periapsis: 206.9252 deg

Mean anomaly: 152.799 deg

Mean motion: 14.44632581 rev/day

Mean motion (dot): 0.00000554 rev/day2

B* drag term: 0.00015001396 1/REarth

Two-line elements (TLE)

Creation date: Dec. 12, 2025, 10:14 a.m.

Reference frame: TEME

Reference center: EARTH

Epoch: Dec. 12, 2025, 6:21 a.m. UTC

TLE line 0: 0 CZ-6A DEB

TLE line 1: 1 60651U 24140BC 25346.26479263 .00000554 00000-0 15001-3 0 9992

TLE line 2: 2 60651 88.8863 286.6360 0076202 206.9252 152.7990 14.44632581 70834

Live tracking on map

Real-time ground track for satellite CZ-6A DEB.

In-orbit conjunctions

A list of the most updated potential collisions computed for object CZ-6A DEB.

Target Orbit TCA Probability of collision Miss distance Type
ATLAS H R/B LEO 2025-08-11 13:09:29 0.001061252 653.0 (m) ROCKET BODY
NOAA 10 SSO 2025-03-17 01:56:33 0.0005175245 220.0 (m) PAYLOAD
NOAA 16 DEB SSO 2025-01-23 23:41:44 0.0002977109 455.0 (m) DEBRIS
WORLDVIEW 2 DEB SSO 2024-12-21 05:42:57 0.0001637769 980.0 (m) DEBRIS
COSMOS 2251 DEB LEO 2024-09-22 21:23:22 0.00010698 585.0 (m) DEBRIS

Associated space launch

18 Low Earth Orbit communication satellites with Ku, Q and V band payloads for the G60 constellation operated by Shanghai Spacecom Satellite Technology (SSST) with funding backed by the Shanghai local government. Initial constellation will consist of 1296 satellites by 2027 with long term plans to expand it to 12000 satellites.

CZ-6A DEB was lifted into orbit during the mission ‘Long March 6A | G60 Polar Group 01’, on board a Long March 6A space rocket.

The launch took place on Aug. 6, 2024, 6:42 a.m. from Launch Complex 9A.

For more information about the launch, click the button.

Launch to space Long March 6A | G60 Polar Group 01
Long March 6A | G60 Polar Group 01

Agency: N/A

Status: Launch Successful

Launch date: Aug. 6, 2024, 6:42 a.m. UTC

Rocket: Long March 6A

Launch pad: Launch Complex 9A

Location: Taiyuan Satellite Launch Center, People's Republic of China

...

Latest news about this satellite

News about space launch
Brightness of first Chinese broadband constellation satellites alarms astronomers

The first satellites of a Chinese broadband constellation are significantly brighter than those of Western systems, posing a new challenge for astronomers.

News about space launch
Chinese rocket stage breaks up into cloud of more than 700 pieces of space debris

HELSINKI — A Chinese Long March 6A rocket’s upper stage has fragmented into a cloud of over 700 pieces of space debris, adding to concerns about long-term orbital safety. China […]

News about space launch
China's Thousand Sails Megaconstellation Kicks Off with Dangerous Debris Field

China's Thousand Sails Megaconstellation Kicks Off with Dangerous Debris Field


Newsletter sign-up

Weekly statistics, charts and insights to help you stay on top of the space industry.